Volver al catálogo

COSMOS 249 DEB

ActivoLEO
NORAD 15775·DEBRIS·🇷🇺 Russia

Lanzado Oct 20, 1968 desde Baikonur Cosmodrome

Loading…

Próximos Pases (próximas 24 horas)

TLE

ActualizadoSource: Space-Track

Época: Sep 13, 2026, 21:12 UTC

1 15775U 68091DA  26256.88363619  .00001582  00000-0  19484-2 0  9998
2 15775  62.2970 219.0929 0668442 346.9150  11.5213 12.99436397579112

Sigue COSMOS 249 DEB en tiempo real con AllMySat

Download on the App Store